Dickinson, ND

10:09 AM MDT on July 26, 2017 (GMT -0600)
Dickinson Municipal

Weather History for KDIK - August, 2014

Change the Weather History Date:

Friday, August 1, 2014

  Actual Average Record
Temperature  
Mean Temperature 71 °F 71 °F  
Max Temperature 86 °F 86 °F 110 °F (1900)
Min Temperature 56 °F 56 °F 38 °F (1948)
Degree Days  
Heating Degree Days 0 1  
Month to date heating degree days 0 1  
Since 1 June heating degree days 214 172  
Since 1 July heating degree days 49 35  
Cooling Degree Days 6 6  
Month to date cooling degree days 6 6  
Year to date cooling degree days 143 235  
Since 1 June cooling degree days 113 225  
Growing Degree Days 20 (Base 50)    
Moisture  
Dew Point 57 °F    
Average Humidity 65    
Maximum Humidity 86    
Minimum Humidity 43    
Precipitation  
Precipitation 0.00 in 0.06 in 1.20 in (1903)
Month to date precipitation 0.00 0.06  
Year to date precipitation 12.98 10.81  
Sea Level Pressure  
Sea Level Pressure 30.03 in    
Wind  
Wind Speed 9 mph (East)    
Max Wind Speed 21 mph    
Max Gust Speed 25 mph    
Visibility 10 miles    
Events      
T = Trace of Precipitation, MM = Missing Value Source: NWS Daily Summary

Daily Weather History Graph

Daily Weather History Graph

Search for Another Location

Airport or City:

Trip Planner

Search our weather history database for the weather conditions in past years. The results will help you decide how hot, cold, wet, or windy it might be!

Date:

Astronomy

Aug. 01, 2014 Rise Set
Actual Time 5:31 AM MDT 8:22 PM MDT
Civil Twilight 4:55 AM MDT 8:58 PM MDT
Nautical Twilight 4:10 AM MDT 9:42 PM MDT
Astronomical Twilight 3:17 AM MDT 10:36 PM MDT
Moon 11:20 AM MDT (8/1) 10:43 PM MDT (8/1)
Length of Visible Light 16h 02m
Length of Day
14h 51m
Waxing Crescent, 28% of the Moon is Illuminated
Aug 1
Waxing Crescent
Aug 3
First Quarter
Aug 10
Full
Aug 17
Last Quarter
Aug 25
New

Hourly Weather History & Observations

Time (MDT) Temp. Heat Index Dew Point Humidity Pressure Visibility Wind Dir Wind Speed Gust Speed Precip Events Conditions
12:56 AM 60.1 °F - 54.0 °F 80% 30.01 in 10.0 mi ESE 8.1 mph - N/A   Clear
1:56 AM 57.9 °F - 54.0 °F 87% 30.01 in 10.0 mi ESE 8.1 mph - N/A   Clear
2:56 AM 57.9 °F - 53.1 °F 84% 30.01 in 10.0 mi ESE 8.1 mph - N/A   Clear
3:51 AM 57.2 °F - 53.6 °F 88% 30.04 in 10.0 mi South 10.4 mph - N/A   Partly Cloudy
4:56 AM 57.0 °F - 53.1 °F 87% 29.99 in 10.0 mi South 8.1 mph - N/A   Clear
5:56 AM 57.9 °F - 54.0 °F 87% 29.98 in 10.0 mi South 10.4 mph - N/A   Clear
6:56 AM 60.1 °F - 55.0 °F 83% 30.00 in 10.0 mi ENE 4.6 mph - N/A   Clear
8:56 AM 71.1 °F - 59.0 °F 66% 30.02 in 10.0 mi ENE 9.2 mph - N/A   Clear
9:56 AM 75.0 °F - 59.0 °F 57% 30.02 in 10.0 mi NE 9.2 mph - N/A   Partly Cloudy
10:56 AM 73.0 °F - 60.1 °F 64% 30.03 in 10.0 mi East 10.4 mph - N/A   Partly Cloudy
1:56 PM 84.0 °F 84.4 °F 61.0 °F 46% 30.03 in 10.0 mi East 12.7 mph 18.4 mph N/A   Clear
2:56 PM 84.9 °F 85.0 °F 61.0 °F 44% 30.02 in 10.0 mi East 12.7 mph - N/A   Clear
5:56 PM 81.0 °F 81.3 °F 59.0 °F 47% 30.02 in 10.0 mi NE 18.4 mph - N/A   Clear
6:56 PM 79.0 °F - 59.0 °F 50% 30.01 in 10.0 mi ENE 12.7 mph - N/A   Clear
7:56 PM 73.0 °F - 59.0 °F 61% 30.03 in 10.0 mi ENE 8.1 mph - N/A   Clear
8:56 PM 66.0 °F - 59.0 °F 78% 30.05 in 10.0 mi NE 6.9 mph - N/A   Clear
9:56 PM 64.0 °F - 57.9 °F 80% 30.07 in 10.0 mi ENE 5.8 mph - N/A   Clear
10:56 PM 63.0 °F - 57.0 °F 81% 30.09 in 10.0 mi East 6.9 mph - N/A   Clear
11:56 PM 61.0 °F - 55.9 °F 83% 30.10 in 10.0 mi Calm Calm - N/A   Clear